timestamp,surface_pressure_avg,surface_temp_avg,battery_voltage,lat,long
2020-12-18 00:09:01+00:00,297.2064,4.5,12.65,47.84626,-54.09684
2020-12-18 00:19:01+00:00,311.4297,4.63,12.65,47.84626,-54.09684
2020-12-18 00:29:01+00:00,315.9497,4.6,12.65,47.84626,-54.09684
2020-12-18 00:39:01+00:00,314.248,4.5,12.65,47.84626,-54.09684
2020-12-18 00:49:01+00:00,316.1613,4.59,12.65,47.84626,-54.09684
2020-12-18 00:59:01+00:00,322.4996,4.69,12.65,47.84626,-54.09684
2020-12-18 01:09:01+00:00,322.6363,4.7,12.65,47.84626,-54.09684
2020-12-18 01:19:01+00:00,320.0897,4.6,12.65,47.84626,-54.09684
2020-12-18 01:29:01+00:00,327.1797,4.6,12.65,47.84626,-54.09684
2020-12-18 01:39:01+00:00,338.1596,4.59,12.65,47.84626,-54.09684
2020-12-18 01:49:01+00:00,338.9263,4.5,12.65,47.84626,-54.09684
2020-12-18 01:59:01+00:00,335.0863,4.34,12.65,47.84626,-54.09684
2020-12-18 02:09:01+00:00,340.6263,4.55,12.65,47.84626,-54.09684
2020-12-18 02:19:01+00:00,347.8846,4.7,12.65,47.84626,-54.09684
2020-12-18 02:29:01+00:00,338.528,4.7,12.65,47.84626,-54.09684
2020-12-18 02:39:01+00:00,329.4196,4.6,12.65,47.84626,-54.09684
2020-12-18 02:49:01+00:00,331.9864,4.6,12.65,47.84626,-54.09684
2020-12-18 02:59:01+00:00,334.673,4.6,12.65,47.84626,-54.09684
2020-12-18 03:09:01+00:00,329.5630000000001,4.5,12.65,47.84626,-54.09684
2020-12-18 03:19:01+00:00,327.1746,4.45,12.65,47.84626,-54.09684
2020-12-18 03:29:01+00:00,331.168,4.4,12.65,47.84626,-54.09684
2020-12-18 03:39:01+00:00,323.823,4.4,12.65,47.84626,-54.09684
2020-12-18 03:49:01+00:00,316.903,4.3,12.65,47.84626,-54.09684
2020-12-18 03:59:01+00:00,316.8646,4.34,12.65,47.84626,-54.09684
2020-12-18 04:09:01+00:00,314.7963,4.3,12.65,47.84626,-54.09684
2020-12-18 04:19:01+00:00,303.4697,4.2,12.65,47.84626,-54.09684
2020-12-18 04:29:01+00:00,296.403,4.5,12.65,47.84626,-54.09684
2020-12-18 04:39:01+00:00,292.8196,4.5,12.65,47.84626,-54.09684
2020-12-18 04:49:01+00:00,284.3947,4.4,12.65,47.84626,-54.09684
2020-12-18 04:59:01+00:00,272.1848,4.31,12.65,47.84626,-54.09684
2020-12-18 05:09:01+00:00,265.3797,4.3,12.65,47.84626,-54.09684
2020-12-18 05:19:01+00:00,255.5064,4.3,12.65,47.84626,-54.09684
2020-12-18 05:29:01+00:00,244.1714,4.32,12.65,47.84626,-54.09684
2020-12-18 05:39:01+00:00,235.3498,4.3,12.65,47.84626,-54.09684
2020-12-18 05:49:01+00:00,225.4047,4.3,12.65,47.84626,-54.09684
2020-12-18 05:59:01+00:00,216.6215,4.39,12.65,47.84626,-54.09684
2020-12-18 06:09:01+00:00,210.5048,4.4,12.65,47.84626,-54.09684
2020-12-18 06:19:01+00:00,207.6881,4.45,12.65,47.84626,-54.09684
2020-12-18 06:29:01+00:00,203.3298,4.49,12.65,47.84626,-54.09684
2020-12-18 06:39:01+00:00,199.7298,4.5,12.65,47.84626,-54.09684
2020-12-18 06:49:01+00:00,197.6148,4.5,12.65,47.84626,-54.09684
2020-12-18 06:59:01+00:00,194.0865,4.5,12.65,47.84626,-54.09684
2020-12-18 07:09:01+00:00,184.7948,4.5,12.65,47.84626,-54.09684
2020-12-18 07:19:01+00:00,179.9214,4.5,12.65,47.84626,-54.09684
2020-12-18 07:29:01+00:00,183.0048,4.5,12.65,47.84626,-54.09684
2020-12-18 07:39:01+00:00,179.9748,4.5,12.65,47.84626,-54.09684
2020-12-18 07:49:01+00:00,179.3398,4.5,12.65,47.84626,-54.09684
2020-12-18 07:59:01+00:00,182.1298,4.5,12.65,47.84626,-54.09684
2020-12-18 08:09:01+00:00,183.0581,4.5,12.65,47.84626,-54.09684
2020-12-18 08:19:01+00:00,185.5981,4.53,12.65,47.84626,-54.09684
2020-12-18 08:29:01+00:00,191.1998,4.57,12.65,47.84626,-54.09684
2020-12-18 08:39:01+00:00,195.6131,4.59,12.65,47.84626,-54.09684
2020-12-18 08:49:01+00:00,198.6182,4.6,12.65,47.84626,-54.09684
2020-12-18 08:59:01+00:00,204.0214,4.6,12.65,47.84626,-54.09684
2020-12-18 09:09:01+00:00,210.0265,4.6,12.65,47.84626,-54.09684
2020-12-18 09:19:01+00:00,214.3798,4.65,12.65,47.84626,-54.09684
2020-12-18 09:29:01+00:00,220.5781,4.68,12.65,47.84626,-54.09684
2020-12-18 09:39:01+00:00,228.9464,4.68,12.65,47.84626,-54.09684
2020-12-18 09:49:01+00:00,238.5247,4.69,12.65,47.84626,-54.09684
2020-12-18 09:59:01+00:00,243.5397,4.68,12.65,47.84626,-54.09684
2020-12-18 10:09:01+00:00,246.0381,4.68,12.65,47.84626,-54.09684
2020-12-18 10:19:01+00:00,252.8481,4.7,12.65,47.84626,-54.09684
2020-12-18 10:29:01+00:00,258.6231,4.7,12.65,47.84626,-54.09684
2020-12-18 10:39:01+00:00,255.6131,4.7,12.65,47.84626,-54.09684
2020-12-18 10:49:01+00:00,256.7314,4.62,12.65,47.84626,-54.09684
2020-12-18 10:59:01+00:00,263.5497,4.62,12.65,47.84626,-54.09684
2020-12-18 11:09:01+00:00,263.4615,4.6,12.65,47.84626,-54.09684
2020-12-18 11:19:01+00:00,262.3847,4.49,12.65,47.84626,-54.09684
2020-12-18 11:29:01+00:00,271.8364,4.3,12.65,47.84626,-54.09684
2020-12-18 11:39:01+00:00,283.0964,4.2,12.65,47.84626,-54.09684
2020-12-18 11:49:01+00:00,288.8531,4.2,12.65,47.84626,-54.09684
2020-12-18 11:59:01+00:00,298.7747,4.2,12.65,47.84626,-54.09684
2020-12-18 12:09:01+00:00,309.1197,4.2,12.65,47.84626,-54.09684
2020-12-18 12:19:01+00:00,318.9614,4.25,12.65,47.84626,-54.09684
2020-12-18 12:29:01+00:00,325.5679,4.41,12.65,47.84626,-54.09684
2020-12-18 12:39:01+00:00,329.2163,4.56,12.65,47.84626,-54.09684
2020-12-18 12:49:01+00:00,336.6263,4.55,12.65,47.84626,-54.09684
2020-12-18 12:59:01+00:00,349.3912,4.5,12.65,47.84626,-54.09684
2020-12-18 13:09:01+00:00,359.6763,4.51,12.65,47.84626,-54.09684
2020-12-18 13:19:01+00:00,360.9029,4.5,12.65,47.84626,-54.09684
2020-12-18 13:29:01+00:00,357.603,4.6,12.65,47.84626,-54.09684
2020-12-18 13:39:01+00:00,364.0363,4.7,12.65,47.84626,-54.09684
2020-12-18 13:49:01+00:00,374.2429,4.78,12.65,47.84626,-54.09684
2020-12-18 13:59:01+00:00,374.5613,4.8,12.65,47.84626,-54.09684
2020-12-18 14:09:01+00:00,372.1712,4.8,12.65,47.84626,-54.09684
2020-12-18 14:19:01+00:00,377.7047,4.8,12.81,47.84626,-54.09684
2020-12-18 14:29:01+00:00,384.0562,4.84,12.81,47.84626,-54.09684
2020-12-18 14:39:01+00:00,381.913,4.85,12.81,47.84626,-54.09684
2020-12-18 14:49:01+00:00,380.3829,4.85,12.81,47.84626,-54.09684
2020-12-18 14:59:01+00:00,383.5596,4.85,12.81,47.84626,-54.09684
2020-12-18 15:09:01+00:00,382.9313,4.8,12.81,47.84626,-54.09684
2020-12-18 15:19:01+00:00,374.4579,4.8,13.37,47.84626,-54.09684
2020-12-18 15:29:01+00:00,371.7014,4.8,13.37,47.84626,-54.09684
2020-12-18 15:39:01+00:00,378.1445,4.89,13.37,47.84626,-54.09684
2020-12-18 15:49:01+00:00,377.8979,4.8,13.37,47.84626,-54.09684
2020-12-18 15:59:01+00:00,362.8562,4.34,13.37,47.84626,-54.09684
2020-12-18 16:09:01+00:00,357.3812,4.49,13.37,47.84626,-54.09684
2020-12-18 16:19:01+00:00,362.6746,4.55,13.53,47.84626,-54.09684
2020-12-18 16:29:01+00:00,351.8713,4.2,13.53,47.84626,-54.09684
2020-12-18 16:39:01+00:00,334.6296,4.19,13.53,47.84626,-54.09684
2020-12-18 16:49:01+00:00,333.2063,4.25,13.53,47.84626,-54.09684
2020-12-18 16:59:01+00:00,331.8796,4.29,13.53,47.84626,-54.09684
2020-12-18 17:09:01+00:00,316.4297,4.2,13.53,47.84626,-54.09684
2020-12-18 17:19:01+00:00,303.7813,4.28,13.6,47.84626,-54.09684
2020-12-18 17:29:01+00:00,299.9163,4.3,13.6,47.84626,-54.09684
2020-12-18 17:39:01+00:00,293.7364,4.3,13.6,47.84626,-54.09684
2020-12-18 17:49:01+00:00,281.9846,4.37,13.6,47.84626,-54.09684
2020-12-18 17:59:01+00:00,275.1597,4.4,13.6,47.84626,-54.09684
2020-12-18 18:09:01+00:00,265.7564,4.09,13.6,47.84626,-54.09684
2020-12-18 18:19:01+00:00,252.2231,4.4,13.44,47.84626,-54.09684
2020-12-18 18:29:01+00:00,245.8414,4.4,13.44,47.84626,-54.09684
2020-12-18 18:39:01+00:00,241.4664,4.39,13.44,47.84626,-54.09684
2020-12-18 18:49:01+00:00,231.3965,4.37,13.44,47.84626,-54.09684
2020-12-18 18:59:01+00:00,220.8981,4.53,13.44,47.84626,-54.09684
2020-12-18 19:09:01+00:00,217.6198,4.5,13.44,47.84626,-54.09684
2020-12-18 19:19:01+00:00,212.8298,4.5,13.13,47.84626,-54.09684
2020-12-18 19:29:01+00:00,204.9598,4.5,13.13,47.84626,-54.09684
2020-12-18 19:39:01+00:00,202.0215,4.5,13.13,47.84626,-54.09684
2020-12-18 19:49:01+00:00,200.1231,4.48,13.13,47.84626,-54.09684
2020-12-18 19:59:01+00:00,195.7198,4.4,13.13,47.84626,-54.09684
2020-12-18 20:09:01+00:00,195.9631,4.4,13.13,47.84626,-54.09684
2020-12-18 20:19:01+00:00,196.9931,4.4,12.89,47.84626,-54.09684
2020-12-18 20:29:01+00:00,194.5681,4.4,12.89,47.84626,-54.09684
2020-12-18 20:39:01+00:00,193.7681,4.2,12.89,47.84626,-54.09684
2020-12-18 20:49:01+00:00,196.8365,3.99,12.89,47.84626,-54.09684
2020-12-18 20:59:01+00:00,203.0464,4.3,12.89,47.84626,-54.09684
2020-12-18 21:09:01+00:00,207.2747,4.4,12.89,47.84626,-54.09684
2020-12-18 21:19:01+00:00,210.8797,4.4,12.81,47.84626,-54.09684
2020-12-18 21:29:01+00:00,212.6414,4.35,12.81,47.84626,-54.09684
2020-12-18 21:39:01+00:00,216.1931,4.3,12.81,47.84626,-54.09684
2020-12-18 21:49:01+00:00,223.6881,4.3,12.81,47.84626,-54.09684
2020-12-18 21:59:01+00:00,225.4414,4.2,12.81,47.84626,-54.09684
2020-12-18 22:09:01+00:00,221.8781,4.16,12.81,47.84626,-54.09684
2020-12-18 22:19:01+00:00,225.5564,4.1,12.73,47.84626,-54.09684
2020-12-18 22:29:01+00:00,234.1248,4.68,12.73,47.84626,-54.09684
2020-12-18 22:39:01+00:00,235.0948,4.5,12.73,47.84626,-54.09684
2020-12-18 22:49:01+00:00,236.9598,4.4,12.73,47.84626,-54.09684
2020-12-18 22:59:01+00:00,241.8081,4.3,12.73,47.84626,-54.09684
2020-12-18 23:09:01+00:00,244.2031,4.1,12.73,47.84626,-54.09684
2020-12-18 23:19:01+00:00,242.0264,4.04,12.73,47.84626,-54.09684
2020-12-18 23:29:01+00:00,242.643,4.1,12.73,47.84626,-54.09684
2020-12-18 23:39:01+00:00,246.4865,4.2,12.73,47.84626,-54.09684
2020-12-18 23:49:01+00:00,248.8748,4.58,12.73,47.84626,-54.09684
2020-12-18 23:59:01+00:00,248.5564,4.76,12.73,47.84626,-54.09684
